Virginia Peak (RGX), Nevada Weather observations

 Day   Time    Ave.   Ave.  Ave.  Vector  Max.   Total    Solar  
  of    of     Air    Rel.  Wind   Wind   Wind  Precip.   Rad.   
Year   Day     Temp.  Hum.  Speed  Dir.   Gust                   
2014   (PST)    F      %     mph   deg.    mph    in.     W/m2  
----------------------------------------------------------------
 239   15:15  999.0    30    4.8   346    15.6   999.00     999
 239   15:30   66.0    30    7.8    56    10.2   999.00     999
 239   15:45  999.0    30    6.0    62    12.6   999.00     999
 239   16:00   66.0    31    7.2     0     9.6   999.00     999
 239   16:15   66.0    31    6.6    46    10.2   999.00     999
 239   16:30   65.0   999    7.8    59    12.0   999.00     999
 239   16:45   64.0    31    9.0    72    10.8   999.00     999
 239   17:00   64.0    31    9.6   999     9.8   999.00     999
 239   17:15   64.0   999    7.2    52    10.2   999.00     999
 239   17:30   64.0    30    3.6    39   999.0   999.00     999
 239   17:45  999.0    29    3.6   323     4.8   999.00     999
 239   18:00   66.0    29    3.6   341     6.6   999.00     999
 239   18:15   66.0    29    4.8   263     5.4   999.00     999
 239   18:30   65.0    29    5.4   277     7.2   999.00     999
 239   18:45   64.0    29    7.2   283     7.8   999.00     999
 239   19:00   39.0    30    6.6   318     8.4   999.00     999
 239   19:15   64.0    30    9.0   290   999.0   999.00     999
 239   19:30   64.0    31    9.0   297    10.8   999.00     999
 239   19:45   63.0    30    9.0   305     9.6   999.00     999
 239   20:00   64.0    30   10.2   286    10.2   999.00     999
 239   20:15   64.0    30    9.6   999    10.8   999.00     999
 239   20:30   63.0    29   63.8   999    12.6   999.00     999
 239   20:45   63.0    27   12.6   305    13.8   999.00     999
 239   21:00   64.0    27    9.6   290     9.4   999.00     999
 239   21:15   63.0    29   10.8   264    10.8   999.00     999
 239   21:30   62.0    32    9.6   270    13.2   999.00     999
 239   21:45  999.0    36    8.4   267    12.0   999.00     999
 239   22:00   60.0    41    9.6   269    10.8   999.00     999
 239   22:15   60.0    40   12.4   267    13.8   999.00     999
 239   22:30   61.0    35   10.8   276   999.0   999.00     999
 239   22:45  999.0   999  999.0   999   999.0   999.00     999
 239   23:00   61.0    37   10.8   277    12.0   999.00     999
 239   23:15   60.0    40   11.4   266    13.2   999.00     999
 239   23:30   60.0    41   10.8   274    12.0   999.00     999
 239   23:45   60.0    40   12.6   269    12.6   999.00     999
 240    0:00   61.0   999   12.6   269    12.6   999.00     999
 240    0:15   61.0    40   13.8   274    15.0   999.00     999
 240    0:30  999.0   999   12.6   278    14.4   999.00     999
 240    0:45   60.0    40  999.0   273    15.0   999.00     999
 240    1:00  999.0    41   14.4   277    15.6   999.00     999
 240    1:15   60.0    34   13.2   279    15.0   999.00     999
 240    1:30   60.0    41  999.0   274   999.0   999.00     999
 240    1:45   59.0    41   15.0   280    16.2   999.00     999
 240    2:00  999.0    42   13.8   281    16.2   999.00     999
 240    2:15   59.0    41   15.0   278    15.6   999.00     999
 240    2:30   59.0    41   14.4   284    16.2   999.00     999
 240    2:45   59.0    42   13.8   280    15.6   999.00     999
 240    3:00   58.0    43   13.2   280    15.6   999.00     999
 240    3:15   58.0    44   13.8   279    15.0   999.00     999
 240    3:30   58.0    44   12.0   289    14.4   999.00     999
 240    3:45   57.0   999   10.8   282   999.0   999.00     999
 240    4:00   57.0    45   11.4   283    12.0   999.00     999
 240    4:15   57.0    45    9.6   288    11.4   999.00     999
 240    4:30   57.0    45    9.6   281    11.4   999.00     999
 240    4:45   57.0    45   10.2   289    12.0   999.00     999
 240    5:00   57.0    45   10.8   291    12.6   999.00     999
 240    5:15   57.0    45    9.0   292    11.4   999.00     999
 240    5:30   57.0    45    7.8   290    10.8   999.00     999
 240    5:45   57.0    45    4.2   292     9.0   999.00     999
 240    6:00   58.0    44    4.2   305     7.2   999.00     999
 240    6:15   59.0    43    5.4   999     7.6   999.00     999
 240    6:30   59.0    43  999.0   295     5.4   999.00     999
 240    6:45   60.0    41  999.0   999   999.0   999.00     999
 240    7:00   63.0    38    1.8   322     3.6   999.00     999
 240    7:15   65.0    35    0.6   322     2.4   999.00     999
 240    7:30   66.0    37    5.4    56     6.0   999.00     999
 240    7:45   66.0    37    4.2    73     6.0   999.00     999
 240    8:00  999.0    36    0.6   999     6.0   999.00     999
 240    8:15   68.0    36    4.8    63     6.0   999.00     999
 240    8:30   67.0    37    5.4   999     9.6   999.00     999
 240    8:45   67.0    38    7.8   110    10.8   999.00     999
 240    9:00   68.0    36    7.2   999     9.0   999.00     999
 240    9:15   67.0    37   11.4   999   999.0   999.00     999
 240    9:30   67.0    38    4.8    66   999.0   999.00     999
 240    9:45   67.0    39    5.4    75    11.4   999.00     999
 240   10:00  999.0    37  999.0    95    12.0   999.00     999
 240   10:15   68.0    37    8.4   127    10.8   999.00     999
 240   10:30   69.0    36    3.0    56     7.2   999.00     999
 240   10:45   69.0    36    5.4   253    26.4   999.00     999
 240   11:00   69.0    24    8.8   262     6.6   999.00     999
 240   11:15  999.0    37    1.8   999     9.0   999.00     999
 240   11:30   67.0    37    5.4   999     6.6   999.00     999
 240   11:45  999.0    35    3.6   203   999.0   999.00     999
 240   12:00  999.0    36   10.0    79    15.6   999.00     999
 240   12:15   70.0    34    4.2    44    11.4   999.00     999
 240   12:30   68.0    35    4.8    46    14.4   999.00     999
 240   12:45  999.0   999  999.0   999   999.0   999.00     999
 240   13:00   70.0    33    3.6   310    10.8   999.00     999
 240   13:15   71.0    31  999.0   324    11.4   999.00     999
 240   13:30   72.0    30    9.6   213    16.2   999.00     999
 240   13:45   73.0    28    9.0   240    14.4   999.00     999
 240   14:00   73.0    27    5.4   240    20.4   999.00     999
 240   14:15  999.0   999  999.0   999   999.0   999.00     999
 240   14:30   72.0    26    7.2   292    15.6   999.00     999
 240   14:45   72.0    25    6.7   208    17.4   999.00     999
 240   15:00  999.0    25    4.8   999    13.8   999.00     999

Return to Virginia Peak (RGX) graphs page.


Western Regional Climate Center,wrcc@dri.edu